(158492) = 2002 EM31

Discovered at Socorro on 2002-03-10 by LINEAR.

Orbit

Orbit type: Main Belt

Note: WebGL enabled browser required.

epoch2024-03-31.0
epoch JD2460400.5
perihelion date2020-01-19.47215
perihelion JD2458867.97215
argument of perihelion (°)275.92213
ascending node (°)225.47674
inclination (°)8.61790
eccentricity0.2470352
perihelion distance (AU)2.0498378
Tisserand w.r.t. Jupiter3.3
ΔV w.r.t. Earth (km/sec)9.4
semimajor axis (AU)2.7223553
mean anomaly (°)336.27533
mean daily motion (°/day)0.21942530
aphelion distance (AU)3.395
period (years)4.49
P-vector [x]-0.77350151
P-vector [y]0.62447417
P-vector [z]0.10829322
Q-vector [x]-0.62472550
Q-vector [y]-0.72242014
Q-vector [z]-0.29635652
absolute magnitude15.83
phase slope0.15
uncertainty0
referenceMPEC 2024-F50
observations used958
oppositions16
arc length (days)9454
first opposition used1998
last opposition used2024
residual rms (arc-secs)0.68
perturbers coarse indicatorM-v
perturbers precise indicator003Ek
first observation date used1998-05-01.0
last observation date used2024-03-19.0
computer nameMPCLINUX
JD of orbit computation2456966.889617
perihelion JD uncertainty (days)6.6294E-05
argument of perihelion uncertainty (°)3.5718E-05
ascending node uncertainty (°)3.4156E-05
inclination uncertainty (°)5.0734E-06
eccentricity uncertainty 4.7634E-08
perihelion distance uncertainty (AU)1.3085E-07
Minimum Orbit Intersection Distances (in AU)
for orbit epoch: 2460400.5, reference: E2024-GF4
Mercury1.71405
Venus1.35389
Earth1.08408
Mars0.50846
Jupiter1.76321
Saturn6.3867
Uranus16.2814
Neptune26.679

Observations

976 total observations over interval: 1998 05 01.28139 – 2024 03 19.277992
These data are available for download (format description).

Date (UT) J2000 RA J2000 Dec Magn Location Ref
1998 05 01.28139 15 07 23.17 -17 39 00.5 19.4   704 – Lincoln Laboratory ETS, New Mexico MPS 155261
1998 05 01.30030 15 07 22.02 -17 38 54.3 19.3   704 – Lincoln Laboratory ETS, New Mexico MPS 155261
1998 05 01.31921 15 07 20.98 -17 38 46.6 19.3   704 – Lincoln Laboratory ETS, New Mexico MPS 155261
1998 05 01.33813 15 07 20.04 -17 38 37.4 19.3   704 – Lincoln Laboratory ETS, New Mexico MPS 155261
2002 01 06.43533 09 40 43.44 -01 18 19.6 19.6   608 – Haleakala-AMOS MPS 55729
2002 01 06.44585 09 40 43.31 -01 18 23.1 19.2   608 – Haleakala-AMOS MPS 55729
2002 01 06.45653 09 40 43.17 -01 18 26.7 19.2   608 – Haleakala-AMOS MPS 55729
2002 01 12.38393 09 39 14.21 -01 46 31.5 18.3   704 – Lincoln Laboratory ETS, New Mexico MPS 54844
2002 01 12.39951 09 39 13.84 -01 46 35.7 18.6   704 – Lincoln Laboratory ETS, New Mexico MPS 54844
2002 01 12.41495 09 39 13.48 -01 46 39.2 18.5   704 – Lincoln Laboratory ETS, New Mexico MPS 54844
2002 01 12.43042 09 39 13.13 -01 46 43.3 18.7   704 – Lincoln Laboratory ETS, New Mexico MPS 54844
2002 01 12.44580 09 39 12.79 -01 46 46.9 18.5   704 – Lincoln Laboratory ETS, New Mexico MPS 54844
2002 01 15.40198 09 38 05.45 -01 57 13.3 19.8   608 – Haleakala-AMOS MPS 55729
2002 01 15.41252 09 38 05.17 -01 57 15.6 19.6   608 – Haleakala-AMOS MPS 55729
2002 01 15.42382 09 38 04.87 -01 57 18.6 19.4   608 – Haleakala-AMOS MPS 55729
2002 01 22.31619 09 34 32.06 -02 12 08.5 18.5   704 – Lincoln Laboratory ETS, New Mexico MPS 54844
2002 01 22.33111 09 34 31.44 -02 12 09.4 18.5   704 – Lincoln Laboratory ETS, New Mexico MPS 54844
2002 01 22.34593 09 34 30.93 -02 12 10.4 18.5   704 – Lincoln Laboratory ETS, New Mexico MPS 54844
2002 01 22.36116 09 34 30.36 -02 12 11.8 18.7   704 – Lincoln Laboratory ETS, New Mexico MPS 54844
2002 02 15.25587 09 16 40.35 -01 17 04.0 17.9   704 – Lincoln Laboratory ETS, New Mexico MPS 55729
2002 02 15.27056 09 16 39.63 -01 16 59.2 18.1   704 – Lincoln Laboratory ETS, New Mexico MPS 55729
2002 02 15.28547 09 16 38.90 -01 16 54.3 18.2   704 – Lincoln Laboratory ETS, New Mexico MPS 55729
2002 02 15.29983 09 16 38.19 -01 16 49.8 18.0   704 – Lincoln Laboratory ETS, New Mexico MPS 55729
2002 02 15.31417 09 16 37.50 -01 16 45.2 18.3   704 – Lincoln Laboratory ETS, New Mexico MPS 55729
2002 02 15.41525 09 16 32.97 -01 16 11.6 19.0   608 – Haleakala-AMOS MPS 55729
2002 02 15.42671 09 16 32.39 -01 16 07.3 18.7   608 – Haleakala-AMOS MPS 55729
2002 02 15.43719 09 16 31.87 -01 16 03.8 18.5   608 – Haleakala-AMOS MPS 55729
2002 02 20.24047 09 13 01.13 -00 48 00.2 20.3   644 – Palomar Mountain/NEAT MPS 55729
2002 02 20.26147 09 13 00.21 -00 47 52.3 19.9   644 – Palomar Mountain/NEAT MPS 55729
2002 02 20.28252 09 12 59.26 -00 47 44.4 19.4   644 – Palomar Mountain/NEAT MPS 55729
2002 03 10.18831 09 04 17.22 +01 18 18.5 18.2   704 – Lincoln Laboratory ETS, New Mexico MPS 55729
2002 03 10.20205 09 04 17.01 +01 18 24.4 18.5   704 – Lincoln Laboratory ETS, New Mexico MPS 55729
2002 03 10.21692 09 04 16.68 +01 18 31.5 18.7   704 – Lincoln Laboratory ETS, New Mexico MPS 55729
2002 03 10.23408 09 04 16.45 +01 18 38.8 19.0   704 – Lincoln Laboratory ETS, New Mexico MPS 55729
2002 03 10.24766 09 04 16.30 +01 18 44.5 18.4   704 – Lincoln Laboratory ETS, New Mexico MPS 55729
2002 03 12.20170 09 03 52.85 +01 32 57.0 18.4   704 – Lincoln Laboratory ETS, New Mexico MPS 55729
2002 03 12.21487 09 03 52.62 +01 33 02.4 18.7   704 – Lincoln Laboratory ETS, New Mexico MPS 55729
2002 03 12.23002 09 03 52.47 +01 33 09.6 18.3   704 – Lincoln Laboratory ETS, New Mexico MPS 55729
2002 03 15.12919 09 03 31.73 +01 53 53.2 18.6   644 – Palomar Mountain/NEAT MPS 55729
2002 03 15.13976 09 03 31.67 +01 53 57.6 18.6   644 – Palomar Mountain/NEAT MPS 55729
2002 03 15.15028 09 03 31.61 +01 54 02.3 18.5   644 – Palomar Mountain/NEAT MPS 55729
2002 03 17.24301 09 03 26.50 +02 08 39.5 18.4   704 – Lincoln Laboratory ETS, New Mexico MPS 55729
2002 03 17.25587 09 03 26.47 +02 08 44.7 18.6   704 – Lincoln Laboratory ETS, New Mexico MPS 55729
2002 03 17.28205 09 03 26.39 +02 08 56.1 18.4   704 – Lincoln Laboratory ETS, New Mexico MPS 55729
2002 03 17.29502 09 03 26.37 +02 09 02.4 19.1   704 – Lincoln Laboratory ETS, New Mexico MPS 55729
2002 04 12.26884 09 14 08.30 +04 26 21.8 19.6   608 – Haleakala-AMOS MPS 54844
2002 04 12.27950 09 14 08.79 +04 26 24.1 20.0   608 – Haleakala-AMOS MPS 54844
2002 04 12.29021 09 14 09.26 +04 26 26.3 19.8   608 – Haleakala-AMOS MPS 54844
2004 10 05.11850 21 55 14.84 -01 44 53.6 21.5 V 291 – LPL/Spacewatch II MPS 155261
2004 10 05.14168 21 55 14.33 -01 45 00.4 21.1 V 291 – LPL/Spacewatch II MPS 155261
2004 10 05.16502 21 55 13.81 -01 45 08.3 21.8 V 291 – LPL/Spacewatch II MPS 155261
2005 10 25.38344 03 57 11.19 +19 27 38.4 19.1 V G96 – Mt. Lemmon Survey MPS 147419
2005 10 25.38878 03 57 10.98 +19 27 36.7 19.2 V G96 – Mt. Lemmon Survey MPS 147419
2005 10 25.39414 03 57 10.80 +19 27 35.1 19.3 V G96 – Mt. Lemmon Survey MPS 147419
2005 10 25.39949 03 57 10.62 +19 27 33.3 19.0 V G96 – Mt. Lemmon Survey MPS 147419
2005 10 26.29416 03 56 39.71 +19 22 44.6 19.1 R 699 – Lowell Observatory-LONEOS MPS 155261
2005 10 26.31613 03 56 38.80 +19 22 37.3   699 – Lowell Observatory-LONEOS MPS 155261
2005 10 26.33810 03 56 37.95 +19 22 28.8   699 – Lowell Observatory-LONEOS MPS 155261
2005 10 26.33988 03 56 37.96 +19 22 29.6 19.7 V 691 – Steward Observatory, Kitt Peak-Spacewatch MPS 147419
2005 10 26.35709 03 56 37.30 +19 22 23.9 19.7 V 691 – Steward Observatory, Kitt Peak-Spacewatch MPS 147419
2005 10 26.36004 03 56 37.26 +19 22 22.5   699 – Lowell Observatory-LONEOS MPS 155261
2005 10 26.37436 03 56 36.65 +19 22 18.3 19.7 V 691 – Steward Observatory, Kitt Peak-Spacewatch MPS 147419
2005 10 30.31262 03 54 05.14 +18 59 58.8 19.4 R 644 – Palomar Mountain/NEAT MPS 147419
2005 10 30.33437 03 54 04.19 +18 59 51.3 19.8 R 644 – Palomar Mountain/NEAT MPS 147419
2005 10 30.34861 03 54 03.55 +18 59 46.5 19.7 V 691 – Steward Observatory, Kitt Peak-Spacewatch MPS 147419
2005 10 30.35624 03 54 03.25 +18 59 43.6 19.8 R 644 – Palomar Mountain/NEAT MPS 147419
2005 10 30.36591 03 54 02.80 +18 59 40.4 19.6 V 691 – Steward Observatory, Kitt Peak-Spacewatch MPS 147419
2005 10 30.38320 03 54 02.05 +18 59 34.3 19.6 V 691 – Steward Observatory, Kitt Peak-Spacewatch MPS 147419
2005 10 31.34094 03 53 21.73 +18 53 53.5 19.2   704 – Lincoln Laboratory ETS, New Mexico MPS 147419
2005 10 31.35323 03 53 21.30 +18 53 48.4 19.7   704 – Lincoln Laboratory ETS, New Mexico MPS 147419
2005 10 31.36553 03 53 20.72 +18 53 43.8 19.4   704 – Lincoln Laboratory ETS, New Mexico MPS 147419
2005 11 03.30824 03 51 09.70 +18 35 42.1 19.4 V 691 – Steward Observatory, Kitt Peak-Spacewatch MPS 147419
2005 11 03.32557 03 51 08.85 +18 35 35.5 20.0 V 691 – Steward Observatory, Kitt Peak-Spacewatch MPS 147419
2005 11 03.33164 03 51 08.53 +18 35 34.1 19.3   704 – Lincoln Laboratory ETS, New Mexico MPS 149430
2005 11 03.34291 03 51 08.02 +18 35 29.0 20.0 V 691 – Steward Observatory, Kitt Peak-Spacewatch MPS 147419
2005 11 03.34410 03 51 07.95 +18 35 27.8 19.4   704 – Lincoln Laboratory ETS, New Mexico MPS 149430
2005 11 03.35630 03 51 07.36 +18 35 23.3 19.5   704 – Lincoln Laboratory ETS, New Mexico MPS 149430
2005 11 03.36838 03 51 06.73 +18 35 18.4 19.7   704 – Lincoln Laboratory ETS, New Mexico MPS 149430
2005 11 26.34433 03 30 25.59 +15 57 01.9 18.9 V 703 – Catalina Sky Survey MPS 151996
2005 11 26.35087 03 30 25.23 +15 57 00.0 18.6 V 703 – Catalina Sky Survey MPS 151996
2005 11 26.35738 03 30 24.94 +15 56 57.4 18.7 V 703 – Catalina Sky Survey MPS 151996
2005 11 26.36390 03 30 24.51 +15 56 54.5 18.8 V 703 – Catalina Sky Survey MPS 151996
2005 11 30.25236 03 26 53.64 +15 30 07.3 19.8 R 644 – Palomar Mountain/NEAT MPS 153623
2005 11 30.25280 03 26 53.55 +15 30 07.2 19.0   704 – Lincoln Laboratory ETS, New Mexico MPS 151996
2005 11 30.26584 03 26 52.84 +15 30 01.8 19.8   704 – Lincoln Laboratory ETS, New Mexico MPS 151996
2005 11 30.27376 03 26 52.47 +15 29 58.4 19.2 R 644 – Palomar Mountain/NEAT MPS 153623
2005 11 30.27987 03 26 52.13 +15 29 57.6 19.5   704 – Lincoln Laboratory ETS, New Mexico MPS 151996
2005 11 30.29265 03 26 51.39 +15 29 51.0 19.5   704 – Lincoln Laboratory ETS, New Mexico MPS 151996
